When you browse on this site, cookies collect data to enhance your experience and personalize the content and advertising you see.
Visit our Privacy Policy to learn more. By continuing to use the site, you agree to this use of cookies and data.
  • In Slovakia
  • List of Countries
  • For 7 days
  • Water Temperature
  • Weather Map
  • Weather Widgets
  • user-avatar
    Login

    Hourly Weather Juan les Pins

    Today, 14 October, Monday

    Time Temperature Precipitation Wind Pressure Humidity
    00:00 +19°C° 0 mm 5 mps 765 mmHg 87%
    01:00 +19°C° 0 mm 5 mps 764 mmHg 86%
    02:00 +19°C° 0 mm 5 mps 764 mmHg 85%
    03:00 +17°C° 0 mm 5 mps 764 mmHg 84%
    04:00 +17°C° 0 mm 5 mps 764 mmHg 83%
    05:00 +17°C° 0 mm 5 mps 764 mmHg 83%
    06:00 +17°C° 0 mm 5 mps 764 mmHg 82%
    07:00 +20°C° 0 mm 5 mps 763 mmHg 76%
    08:00 +22°C° 0 mm 5 mps 763 mmHg 70%
    09:00 +23°C° 0 mm 5 mps 763 mmHg 65%
    10:00 +25°C° 0 mm 5 mps 763 mmHg 63%
    11:00 +26°C° 0 mm 6 mps 763 mmHg 60%
    12:00 +26°C° 0 mm 6 mps 763 mmHg 58%
    13:00 +26°C° 0 mm 6 mps 762 mmHg 62%
    14:00 +24°C° 0 mm 6 mps 762 mmHg 66%
    15:00 +24°C° 0 mm 6 mps 762 mmHg 69%
    16:00 +23°C° 0 mm 6 mps 762 mmHg 76%
    17:00 +22°C° 0 mm 6 mps 762 mmHg 82%
    18:00 +20°C° 0 mm 5 mps 762 mmHg 89%
    19:00 +20°C° 0 mm 5 mps 762 mmHg 88%
    20:00 +20°C° 0 mm 5 mps 761 mmHg 86%
    21:00 +20°C° 0 mm 5 mps 761 mmHg 85%
    22:00 +20°C° 0 mm 5 mps 761 mmHg 83%
    23:00 +20°C° 0 mm 5 mps 761 mmHg 80%

    Tomorrow, 15 October, Tuesday

    Time Temperature Precipitation Wind Pressure Humidity
    00:00 +20°C° 0 mm 5 mps 760 mmHg 78%
    01:00 +20°C° 0.2 mm 5 mps 760 mmHg 77%
    02:00 +20°C° 0.2 mm 5 mps 759 mmHg 75%
    03:00 +20°C° 0.2 mm 6 mps 758 mmHg 74%
    04:00 +20°C° 2.3 mm 5 mps 758 mmHg 78%
    05:00 +19°C° 2.3 mm 4 mps 758 mmHg 82%
    06:00 +19°C° 2.3 mm 3 mps 758 mmHg 87%
    07:00 +19°C° 2.2 mm 3 mps 758 mmHg 88%
    08:00 +19°C° 2.2 mm 3 mps 758 mmHg 89%
    09:00 +19°C° 2.2 mm 4 mps 758 mmHg 90%
    10:00 +20°C° 1.5 mm 3 mps 758 mmHg 87%
    11:00 +21°C° 1.5 mm 3 mps 758 mmHg 84%
    12:00 +21°C° 1.5 mm 3 mps 758 mmHg 80%
    13:00 +22°C° 0.1 mm 4 mps 758 mmHg 73%
    14:00 +22°C° 0.1 mm 5 mps 757 mmHg 66%
    15:00 +22°C° 0.1 mm 7 mps 757 mmHg 59%
    16:00 +21°C° 0 mm 7 mps 758 mmHg 62%
    17:00 +18°C° 0 mm 7 mps 758 mmHg 65%
    18:00 +17°C° 0 mm 8 mps 759 mmHg 68%
    19:00 +16°C° 0 mm 8 mps 759 mmHg 68%
    20:00 +16°C° 0 mm 8 mps 759 mmHg 67%
    21:00 +15°C° 0 mm 8 mps 760 mmHg 66%
    22:00 +15°C° 0 mm 8 mps 760 mmHg 66%
    23:00 +15°C° 0 mm 8 mps 760 mmHg 66%

    Day after tomorrow, 16 October, Wednesday

    Time Temperature Precipitation Wind Pressure Humidity
    00:00 +13°C° 0 mm 8 mps 760 mmHg 66%
    01:00 +14°C° 0 mm 7 mps 760 mmHg 63%
    02:00 +14°C° 0 mm 6 mps 760 mmHg 61%
    03:00 +14°C° 0 mm 5 mps 760 mmHg 59%
    04:00 +14°C° 0 mm 4 mps 760 mmHg 58%
    05:00 +13°C° 0 mm 4 mps 761 mmHg 56%
    06:00 +13°C° 0 mm 3 mps 761 mmHg 55%
    07:00 +16°C° 0 mm 3 mps 761 mmHg 52%
    08:00 +19°C° 0 mm 2 mps 761 mmHg 49%
    09:00 +22°C° 0 mm 1 mps 762 mmHg 46%
    10:00 +21°C° 0 mm 2 mps 762 mmHg 46%
    11:00 +23°C° 0 mm 2 mps 762 mmHg 47%
    12:00 +22°C° 0 mm 3 mps 762 mmHg 47%
    13:00 +22°C° 0 mm 3 mps 762 mmHg 47%
    14:00 +22°C° 0 mm 4 mps 762 mmHg 48%
    15:00 +22°C° 0 mm 5 mps 762 mmHg 48%
    16:00 +20°C° 0 mm 4 mps 762 mmHg 55%
    17:00 +19°C° 0 mm 4 mps 762 mmHg 61%
    18:00 +17°C° 0 mm 4 mps 762 mmHg 68%
    19:00 +17°C° 0 mm 4 mps 763 mmHg 67%
    20:00 +17°C° 0 mm 4 mps 763 mmHg 66%
    21:00 +15°C° 0 mm 4 mps 763 mmHg 65%
    22:00 +16°C° 0 mm 3 mps 763 mmHg 65%
    23:00 +16°C° 0 mm 3 mps 763 mmHg 64%

    17 October, Thursday

    Time Temperature Precipitation Wind Pressure Humidity
    00:00 +16°C° 0 mm 3 mps 763 mmHg 63%
    01:00 +16°C° 0 mm 3 mps 763 mmHg 63%
    02:00 +15°C° 0 mm 2 mps 763 mmHg 63%
    03:00 +15°C° 0 mm 2 mps 763 mmHg 63%
    04:00 +15°C° 0 mm 2 mps 763 mmHg 64%
    05:00 +15°C° 0 mm 2 mps 763 mmHg 64%
    06:00 +15°C° 0 mm 2 mps 763 mmHg 65%
    07:00 +18°C° 0 mm 1 mps 763 mmHg 62%
    08:00 +20°C° 0 mm 1 mps 763 mmHg 58%
    09:00 +22°C° 0 mm 1 mps 763 mmHg 55%
    10:00 +22°C° 0 mm 1 mps 763 mmHg 56%
    11:00 +21°C° 0 mm 2 mps 763 mmHg 57%
    12:00 +21°C° 0 mm 2 mps 763 mmHg 58%
    13:00 +21°C° 0 mm 3 mps 763 mmHg 62%
    14:00 +21°C° 0 mm 3 mps 763 mmHg 65%
    15:00 +21°C° 0 mm 3 mps 763 mmHg 68%
    16:00 +20°C° 0 mm 3 mps 763 mmHg 73%
    17:00 +19°C° 0 mm 2 mps 763 mmHg 77%
    18:00 +18°C° 0 mm 2 mps 763 mmHg 82%
    19:00 +17°C° 0 mm 2 mps 763 mmHg 83%
    20:00 +18°C° 0 mm 1 mps 763 mmHg 83%
    21:00 +18°C° 0 mm 1 mps 764 mmHg 84%
    22:00 +18°C° 0 mm 1 mps 763 mmHg 84%
    23:00 +18°C° 0 mm 1 mps 763 mmHg 83%

    18 October, Friday

    Time Temperature Precipitation Wind Pressure Humidity
    00:00 +16°C° 0 mm 1 mps 763 mmHg 83%
    01:00 +18°C° 0 mm 1 mps 763 mmHg 81%
    02:00 +18°C° 0 mm 1 mps 763 mmHg 78%
    03:00 +18°C° 0 mm 1 mps 763 mmHg 76%
    04:00 +16°C° 0 mm 0 mps 763 mmHg 75%
    05:00 +16°C° 0 mm 0 mps 763 mmHg 75%
    06:00 +15°C° 0 mm 0 mps 763 mmHg 74%
    07:00 +16°C° 0 mm 0 mps 763 mmHg 71%
    08:00 +18°C° 0 mm 0 mps 763 mmHg 68%
    09:00 +19°C° 0 mm 0 mps 763 mmHg 64%
    10:00 +21°C° 0 mm 1 mps 763 mmHg 62%
    11:00 +22°C° 0 mm 1 mps 763 mmHg 60%
    12:00 +22°C° 0 mm 1 mps 763 mmHg 57%
    13:00 +22°C° 0 mm 1 mps 763 mmHg 63%
    14:00 +20°C° 0 mm 2 mps 762 mmHg 68%
    15:00 +19°C° 0 mm 2 mps 762 mmHg 74%
    16:00 +20°C° 0 mm 1 mps 762 mmHg 77%
    17:00 +19°C° 0 mm 1 mps 762 mmHg 80%
    18:00 +19°C° 0 mm 1 mps 762 mmHg 83%
    19:00 +19°C° 0 mm 1 mps 762 mmHg 83%
    20:00 +19°C° 0 mm 1 mps 762 mmHg 83%
    21:00 +16°C° 0 mm 0 mps 762 mmHg 83%
    22:00 +16°C° 0 mm 0 mps 762 mmHg 83%
    23:00 +18°C° 0 mm 1 mps 762 mmHg 82%

    19 October, Saturday

    Time Temperature Precipitation Wind Pressure Humidity
    00:00 +18°C° 0 mm 1 mps 761 mmHg 82%
    01:00 +18°C° 0 mm 1 mps 761 mmHg 81%
    02:00 +18°C° 0 mm 1 mps 761 mmHg 80%
    03:00 +18°C° 0 mm 1 mps 761 mmHg 79%
    04:00 +16°C° 0 mm 1 mps 761 mmHg 80%
    05:00 +16°C° 0 mm 1 mps 761 mmHg 80%
    06:00 +16°C° 0 mm 1 mps 761 mmHg 80%
    07:00 +18°C° 0 mm 1 mps 761 mmHg 78%
    08:00 +18°C° 0 mm 2 mps 761 mmHg 76%
    09:00 +19°C° 0 mm 2 mps 761 mmHg 74%
    10:00 +19°C° 0 mm 2 mps 761 mmHg 73%
    11:00 +20°C° 0 mm 2 mps 761 mmHg 72%
    12:00 +20°C° 0 mm 2 mps 761 mmHg 71%
    13:00 +20°C° 0.2 mm 2 mps 760 mmHg 75%
    14:00 +19°C° 0.2 mm 2 mps 760 mmHg 80%
    15:00 +18°C° 0.2 mm 2 mps 760 mmHg 84%
    16:00 +18°C° 0.2 mm 2 mps 760 mmHg 84%
    17:00 +18°C° 0.2 mm 2 mps 759 mmHg 83%
    18:00 +17°C° 0.2 mm 2 mps 759 mmHg 83%
    19:00 +17°C° 0.4 mm 2 mps 759 mmHg 82%
    20:00 +17°C° 0.4 mm 2 mps 759 mmHg 82%
    21:00 +17°C° 0.4 mm 3 mps 759 mmHg 81%
    22:00 +17°C° 0.3 mm 2 mps 759 mmHg 81%
    23:00 +17°C° 0.3 mm 2 mps 759 mmHg 80%
    Show more